Location: Chequamegon National Forest
(46.1070°N, 90.8420°W)
Time: 13:48:54
(UTC-05:00)

Amateur Radio Satellites - All Passes

Search period start: 02 September 2014 13:18
Search period end: 03 September 2014 13:18
Location: Chequamegon National Forest, 46.1070°N, 90.8420°W

Satellite Date Start Highest point End Downlink Frequencies (MHz)
Time Altitude Azimuth
MaSat-1 02 Sep 13:32:07 13:37:07 73° 300° (WNW) 13:42:18 437.345 MHz
Oscar 16 02 Sep 13:33:03 13:38:12 77° 73° (ENE) 13:43:24 437.025 USB, Beacon 2401.1428
ITAMSAT 1 02 Sep 13:37:07 13:41:52 38° 67° (ENE) 13:46:38 435.822 SSB
ISS 02 Sep 13:37:11 13:40:12 31° 5° (N) 13:43:14 145.800 FM
Uribyol 2 02 Sep 13:46:05 13:51:01 48° 69° (ENE) 13:55:59 436.500 FM
AO-7 02 Sep 13:46:44 13:51:03 15° 39° (NE) 13:55:22 29.400 - 29.500 MHz
TMSAT-1 02 Sep 14:02:20 14:06:29 24° 62° (ENE) 14:10:39 436.925 FM
AO-27 02 Sep 14:06:29 14:11:37 69° 72° (ENE) 14:16:47 436.795 MHz FM
UOSAT-12 02 Sep 14:16:14 14:20:50 52° 240° (WSW) 14:25:21 437.025 FM, 437.400 FM
Oscar 19 02 Sep 14:37:42 14:42:16 32° 265° (W) 14:46:54 437.125 CW, 437.150 USB
AO-Echo 02 Sep 14:41:13 14:46:05 54° 260° (W) 14:50:51 ?
Gurwin Techsat 1B 02 Sep 14:51:06 14:56:24 79° 74° (ENE) 15:01:44 435.225 FM
JAS-1B 02 Sep 15:05:38 15:15:08 59° 260° (W) 15:23:33 435.800 - 435.900 CW/SSB
MaSat-1 02 Sep 15:11:52 15:15:01 16° 320° (NW) 15:18:12 437.345 MHz
ISS 02 Sep 15:13:59 15:17:19 70° 25° (NNE) 15:20:38 145.800 FM
Oscar 16 02 Sep 15:15:14 15:18:09 15° 271° (W) 15:21:06 437.025 USB, Beacon 2401.1428
ITAMSAT 1 02 Sep 15:16:54 15:21:26 31° 265° (W) 15:25:59 435.822 SSB
RS-15 02 Sep 15:21:42 15:32:29 55° 41° (NE) 15:43:37 29.354 - 29.394 USB, Beacon 29.352 USB
Uribyol 2 02 Sep 15:26:36 15:30:44 24° 267° (W) 15:34:54 436.500 FM
AO-7 02 Sep 15:34:02 15:42:02 54° 62° (ENE) 15:50:02 29.400 - 29.500 MHz
Uosat F 02 Sep 15:34:43 15:39:06 31° 65° (ENE) 15:43:29 435.120 FM
TMSAT-1 02 Sep 15:40:55 15:46:04 54° 260° (W) 15:51:16 436.925 FM
AO-27 02 Sep 15:48:24 15:51:39 17° 270° (W) 15:54:56 436.795 MHz FM
Sapphire 02 Sep 15:50:32 15:54:33 22° 107° (ESE) 15:58:36 437.095 MHz 1200 baud AX-25 AFSK
PCSat 02 Sep 16:18:27 16:23:26 39° 113° (ESE) 16:28:27 145.825 MHz
Gurwin Techsat 1B 02 Sep 16:33:59 16:36:59 15° 272° (W) 16:40:01 435.225 FM
ISS 02 Sep 16:51:10 16:53:46 21° 222° (SW) 16:56:22 145.800 FM
JAS-1B 02 Sep 17:03:31 17:07:05 13° 278° (W) 17:10:33 435.800 - 435.900 CW/SSB
OPAL 02 Sep 17:04:23 17:09:02 31° 98° (E) 17:13:37 ?
Uosat F 02 Sep 17:13:14 17:17:49 36° 263° (W) 17:22:26 435.120 FM
AO-7 02 Sep 17:27:22 17:35:03 40° 262° (W) 17:42:45 29.400 - 29.500 MHz
JAS-2 02 Sep 17:27:44 17:33:14 43° 68° (ENE) 17:38:16 435.800 - 435.900 CW/SSB, 435.910 FM
Sapphire 02 Sep 17:32:09 17:37:30 64° 306° (NW) 17:42:55 437.095 MHz 1200 baud AX-25 AFSK
RS-15 02 Sep 17:34:21 17:44:57 55° 246° (WSW) 17:55:59 29.354 - 29.394 USB, Beacon 29.352 USB
Hamsat 02 Sep 17:53:21 17:57:38 65° 74° (ENE) 18:01:59 145.90 MHz
PCSat 02 Sep 18:01:50 18:06:52 38° 313° (NW) 18:11:57 145.825 MHz
SO-67 02 Sep 18:14:04 18:15:54 14° 64° (ENE) 18:17:45 435.3500 MHz FM
OPAL 02 Sep 18:43:07 18:47:58 39° 296° (WNW) 18:52:46 ?
STRAND 1 02 Sep 18:53:44 18:57:27 20° 92° (E) 19:01:08 ?
JAS-2 02 Sep 19:13:22 19:18:28 29° 264° (W) 19:23:12 435.800 - 435.900 CW/SSB, 435.910 FM
Sapphire 02 Sep 19:18:41 19:22:03 16° 328° (NNW) 19:25:25 437.095 MHz 1200 baud AX-25 AFSK
Hamsat 02 Sep 19:31:51 19:34:03 14° 271° (W) 19:36:16 145.90 MHz
HO-68 02 Sep 19:34:43 19:40:20 26° 55° (NE) 19:45:57 435.675 MHz FM
SO-67 02 Sep 19:45:17 19:48:36 43° 261° (W) 19:51:57 435.3500 MHz FM
PCSat 02 Sep 19:49:58 19:51:55 12° 336° (NNW) 19:53:52 145.825 MHz
RS-15 02 Sep 19:52:30 19:54:36 11° 268° (W) 19:56:43 29.354 - 29.394 USB, Beacon 29.352 USB
MaSat-1 02 Sep 20:12:29 20:13:50 11° 33° (NNE) 20:15:08 437.345 MHz
STRAND 1 02 Sep 20:32:00 20:37:01 57° 289° (WNW) 20:42:00 ?
HO-68 02 Sep 21:20:15 21:27:23 76° 255° (WSW) 21:34:34 435.675 MHz FM
UKube-1 02 Sep 21:30:18 21:34:38 78° 74° (ENE) 21:39:00 145.840 MHz, 145.915 MHz
Oscar 11 02 Sep 21:33:03 21:37:16 52° 72° (ENE) 21:41:31 145.825 FM, Beacon 2401.500 USB
MaSat-1 02 Sep 21:47:31 21:52:05 52° 56° (NE) 21:56:02 437.345 MHz
Saudisat 1A 02 Sep 21:56:36 22:00:37 36° 118° (ESE) 22:04:41 436.775 MHz
FUNcube-1 02 Sep 22:07:59 22:12:02 47° 71° (ENE) 22:16:11 145.950 - 145.970 MHz USB
KITSAT 1 02 Sep 22:43:09 22:50:31 41° 111° (ESE) 22:57:55 435.175 FM
Sapphire 02 Sep 22:52:50 22:54:19 11° 22° (NNE) 22:55:48 437.095 MHz 1200 baud AX-25 AFSK
UKube-1 02 Sep 23:10:06 23:11:24 11° 271° (W) 23:12:42 145.840 MHz, 145.915 MHz
Oscar 11 02 Sep 23:10:57 23:13:46 17° 269° (W) 23:16:37 145.825 FM, Beacon 2401.500 USB
HO-68 02 Sep 23:12:42 23:16:16 14° 274° (W) 23:19:51 435.675 MHz FM
PCSat 02 Sep 23:21:05 23:24:12 15° 30° (NNE) 23:27:18 145.825 MHz
MaSat-1 02 Sep 23:25:33 23:28:30 18° 258° (WSW) 23:31:12 437.345 MHz
Saudisat 1A 02 Sep 23:36:14 23:40:14 33° 317° (NW) 23:44:16 436.775 MHz
FUNcube-1 02 Sep 23:45:54 23:48:44 17° 269° (W) 23:51:37 145.950 - 145.970 MHz USB
Sapphire 03 Sep 00:34:31 00:39:29 34° 46° (NE) 00:44:24 437.095 MHz 1200 baud AX-25 AFSK
KITSAT 1 03 Sep 00:37:46 00:45:42 57° 312° (NW) 00:53:41 435.175 FM
PCSat 03 Sep 01:03:29 01:08:51 56° 53° (NE) 01:14:10 145.825 MHz
Oscar 19 03 Sep 01:10:32 01:10:54 10° 85° (E) 01:11:16 437.125 CW, 437.150 USB
Oscar 10/S400 03 Sep 01:27:49 02:21:54 46° 209° (SSW) 08:39:55 145.825 - 145.975 CW/USB, Beacon 145.810 USB
Oscar 16 03 Sep 01:42:56 01:46:58 22° 92° (E) 01:50:59 437.025 USB, Beacon 2401.1428
ITAMSAT 1 03 Sep 01:50:18 01:51:08 10° 86° (E) 01:51:58 435.822 SSB
Uribyol 2 03 Sep 01:57:48 02:00:24 14° 88° (E) 02:03:00 436.500 FM
AO-27 03 Sep 02:17:48 02:21:36 20° 92° (E) 02:25:23 436.795 MHz FM
Sapphire 03 Sep 02:17:53 02:23:02 45° 246° (WSW) 02:28:10 437.095 MHz 1200 baud AX-25 AFSK
KITSAT 1 03 Sep 02:36:56 02:43:04 23° 338° (NNW) 02:49:13 435.175 FM
AO-Echo 03 Sep 02:45:49 02:50:11 37° 97° (E) 02:54:34 ?
Oscar 19 03 Sep 02:45:53 02:51:07 77° 103° (ESE) 02:56:18 437.125 CW, 437.150 USB
OPAL 03 Sep 02:46:33 02:48:40 13° 51° (NE) 02:50:49 ?
PCSat 03 Sep 02:47:33 02:51:54 25° 252° (WSW) 02:56:14 145.825 MHz
SO-50 03 Sep 02:50:16 02:54:12 31° 116° (ESE) 02:58:13 436.795 FM
JAS-1B 03 Sep 02:50:20 02:56:26 37° 94° (E) 03:01:49 435.800 - 435.900 CW/SSB
Gurwin Techsat 1B 03 Sep 03:05:17 03:09:42 26° 93° (E) 03:14:04 435.225 FM
Oscar 16 03 Sep 03:21:34 03:26:38 52° 290° (WNW) 03:31:39 437.025 USB, Beacon 2401.1428
ITAMSAT 1 03 Sep 03:26:15 03:31:28 79° 104° (ESE) 03:36:40 435.822 SSB
Uribyol 2 03 Sep 03:35:19 03:40:32 83° 286° (WNW) 03:45:45 436.500 FM
AO-7 03 Sep 03:35:50 03:38:43 12° 84° (E) 03:41:36 29.400 - 29.500 MHz
TMSAT-1 03 Sep 03:54:01 03:59:11 50° 99° (E) 04:04:19 436.925 FM
AO-27 03 Sep 03:56:24 04:01:30 58° 289° (WNW) 04:06:34 436.795 MHz FM
OPAL 03 Sep 04:21:35 04:26:39 73° 71° (ENE) 04:31:50 ?
AO-Echo 03 Sep 04:24:55 04:28:51 27° 295° (WNW) 04:32:47 ?
Oscar 19 03 Sep 04:26:32 04:29:51 17° 302° (WNW) 04:33:09 437.125 CW, 437.150 USB
UOSAT-12 03 Sep 04:30:09 04:34:00 27° 114° (ESE) 04:37:55 437.025 FM, 437.400 FM
SO-50 03 Sep 04:30:25 04:34:39 39° 315° (NW) 04:39:01 436.795 FM
KITSAT 1 03 Sep 04:36:31 04:41:55 19° 9° (N) 04:47:18 435.175 FM
JAS-1B 03 Sep 04:40:59 04:47:09 38° 298° (WNW) 04:52:34 435.800 - 435.900 CW/SSB
Saudisat 1A 03 Sep 04:42:06 04:44:36 15° 29° (NNE) 04:47:06 436.775 MHz
Gurwin Techsat 1B 03 Sep 04:44:48 04:49:53 47° 291° (WNW) 04:54:56 435.225 FM
ITAMSAT 1 03 Sep 05:07:07 05:10:21 17° 302° (WNW) 05:13:35 435.822 SSB
Uribyol 2 03 Sep 05:16:41 05:19:13 14° 305° (NW) 05:21:46 436.500 FM
Uosat F 03 Sep 05:17:46 05:22:43 57° 101° (E) 05:27:38 435.120 FM
AO-7 03 Sep 05:24:58 05:33:13 63° 104° (ESE) 05:41:23 29.400 - 29.500 MHz
TMSAT-1 03 Sep 05:34:32 05:38:49 25° 298° (WNW) 05:43:04 436.925 FM
RS-15 03 Sep 05:52:58 06:00:11 20° 99° (E) 06:07:18 29.354 - 29.394 USB, Beacon 29.352 USB
OPAL 03 Sep 06:03:01 06:06:06 16° 269° (W) 06:09:13 ?
UOSAT-12 03 Sep 06:09:27 06:13:56 47° 313° (NW) 06:18:31 437.025 FM, 437.400 FM
STRAND 1 03 Sep 06:11:54 06:16:33 37° 67° (ENE) 06:21:13 ?
SO-50 03 Sep 06:14:51 06:16:32 12° 338° (NNW) 06:18:14 436.795 FM
JAS-2 03 Sep 06:18:03 06:22:35 28° 95° (E) 06:27:24 435.800 - 435.900 CW/SSB, 435.910 FM
Saudisat 1A 03 Sep 06:20:39 06:25:04 63° 50° (NE) 06:29:26 436.775 MHz
KITSAT 1 03 Sep 06:32:44 06:40:05 36° 37° (NE) 06:47:24 435.175 FM
Uosat F 03 Sep 06:57:24 07:01:07 21° 299° (WNW) 07:04:50 435.120 FM
SO-67 03 Sep 07:08:28 07:09:24 11° 89° (E) 07:10:19 435.3500 MHz FM
Hamsat 03 Sep 07:12:27 07:16:50 87° 284° (WNW) 07:21:08 145.90 MHz
AO-7 03 Sep 07:18:19 07:25:35 36° 305° (NW) 07:32:51 29.400 - 29.500 MHz
STRAND 1 03 Sep 07:51:20 07:55:48 31° 265° (W) 08:00:18 ?
UOSAT-12 03 Sep 07:52:58 07:55:16 13° 335° (NNW) 07:57:34 437.025 FM, 437.400 FM
RS-15 03 Sep 07:59:37 08:10:39 79° 121° (ESE) 08:21:34 29.354 - 29.394 USB, Beacon 29.352 USB
Saudisat 1A 03 Sep 08:01:18 08:04:11 17° 249° (WSW) 08:07:03 436.775 MHz
JAS-2 03 Sep 08:02:55 08:07:52 43° 291° (WNW) 08:13:11 435.800 - 435.900 CW/SSB, 435.910 FM
KITSAT 1 03 Sep 08:28:07 08:36:11 73° 241° (WSW) 08:44:11 435.175 FM
SO-67 03 Sep 08:39:23 08:42:46 51° 286° (WNW) 08:46:07 435.3500 MHz FM
HO-68 03 Sep 08:46:32 08:51:13 18° 88° (E) 08:55:51 435.675 MHz FM
Hamsat 03 Sep 08:50:58 08:52:04 11° 302° (WNW) 08:53:09 145.90 MHz
AO-7 03 Sep 09:15:03 09:15:56 10° 329° (NNW) 09:16:49 29.400 - 29.500 MHz
UKube-1 03 Sep 09:18:38 09:19:43 11° 88° (E) 09:20:49 145.840 MHz, 145.915 MHz
ISS 03 Sep 09:34:40 09:37:40 32° 141° (SE) 09:40:41 145.800 FM
SO-50 03 Sep 09:39:12 09:42:03 16° 29° (NNE) 09:44:56 436.795 FM
RS-15 03 Sep 10:13:50 10:24:03 42° 329° (NNW) 10:34:20 29.354 - 29.394 USB, Beacon 29.352 USB
KITSAT 1 03 Sep 10:25:48 10:30:11 16° 261° (W) 10:34:33 435.175 FM
HO-68 03 Sep 10:32:38 10:39:51 90° 108° (ESE) 10:47:02 435.675 MHz FM
UKube-1 03 Sep 10:52:08 10:56:30 80° 286° (WNW) 11:00:50 145.840 MHz, 145.915 MHz
Oscar 11 03 Sep 10:54:06 10:58:30 76° 103° (ESE) 11:02:51 145.825 FM, Beacon 2401.500 USB
ISS 03 Sep 11:11:02 11:14:18 52° 340° (NNW) 11:17:35 145.800 FM
UOSAT-12 03 Sep 11:17:31 11:19:58 14° 25° (NNE) 11:22:24 437.025 FM, 437.400 FM
SO-50 03 Sep 11:18:50 11:23:34 61° 50° (NE) 11:28:22 436.795 FM
FUNcube-1 03 Sep 11:30:22 11:34:57 75° 102° (ESE) 11:39:33 145.950 - 145.970 MHz USB
MaSat-1 03 Sep 11:39:01 11:41:59 16° 101° (E) 11:45:01 437.345 MHz
JAS-1B 03 Sep 11:50:47 11:54:53 14° 46° (NE) 11:58:44 435.800 - 435.900 CW/SSB
HO-68 03 Sep 12:21:32 12:26:41 22° 308° (NW) 12:31:51 435.675 MHz FM
Oscar 19 03 Sep 12:27:47 12:31:38 22° 61° (ENE) 12:35:30 437.125 CW, 437.150 USB
RS-15 03 Sep 12:31:03 12:40:12 29° 3° (N) 12:49:29 29.354 - 29.394 USB, Beacon 29.352 USB
UKube-1 03 Sep 12:31:20 12:31:57 10° 304° (NW) 12:32:34 145.840 MHz, 145.915 MHz
Oscar 11 03 Sep 12:31:58 12:34:06 14° 300° (WNW) 12:36:13 145.825 FM, Beacon 2401.500 USB
ISS 03 Sep 12:48:30 12:51:29 30° 360° (N) 12:54:29 145.800 FM
UOSAT-12 03 Sep 12:56:37 13:01:15 49° 47° (NE) 13:05:48 437.025 FM, 437.400 FM
SO-50 03 Sep 13:00:12 13:03:46 21° 248° (WSW) 13:07:21 436.795 FM
Oscar 16 03 Sep 13:02:08 13:06:58 42° 68° (ENE) 13:11:50 437.025 USB, Beacon 2401.1428
FUNcube-1 03 Sep 13:08:18 13:10:47 15° 300° (WNW) 13:13:17 145.950 - 145.970 MHz USB
ITAMSAT 1 03 Sep 13:09:04 13:13:02 23° 61° (ENE) 13:17:02 435.822 SSB
